MDT,Max TemperatureF,Mean TemperatureF,Min TemperatureF,Max Dew PointF,MeanDew PointF,Min DewpointF,Max Humidity, Mean Humidity, Min Humidity, Max Sea Level PressureIn, Mean Sea Level PressureIn, Min Sea Level PressureIn, Max VisibilityMiles, Mean VisibilityMiles, Min VisibilityMiles, Max Wind SpeedMPH, Mean Wind SpeedMPH, Max Gust SpeedMPH,PrecipitationIn, CloudCover, Events, WindDirDegrees
2011-3-1,57,39,21,21,12,4,96,41,12,30.19,30.11,29.99,10,10,5,15,7,22,0.00,0,,136
2011-3-2,45,33,21,25,22,20,100,78,42,30.23,30.11,29.92,10,6,0,21,14,,0.00,4,Fog,137
2011-3-3,60,44,27,39,27,20,83,56,23,29.96,29.89,29.79,10,10,8,17,7,24,0.07,4,Rain,290
2011-3-4,37,30,21,33,26,19,93,79,57,30.42,30.17,29.93,10,10,4,18,11,29,0.00,4,,13
2011-3-5,50,34,19,23,15,7,89,47,18,30.41,30.22,29.99,10,10,10,16,8,21,0.00,2,,198
2011-3-6,50,36,21,25,20,13,89,54,35,29.97,29.89,29.81,10,10,10,24,9,31,0.00,3,,89
2011-3-7,26,20,14,19,13,10,100,83,60,30.03,29.89,29.76,10,7,1,16,11,,0.00,8,Snow,75
2011-3-8,27,21,15,23,16,12,93,85,74,30.19,29.91,29.75,9,3,1,16,10,,0.04,7,Snow,35
2011-3-9,46,34,21,22,17,10,88,55,22,30.37,30.28,30.14,10,10,8,31,13,39,0.00,1,,295
2011-3-10,64,47,30,21,18,15,61,35,15,30.33,30.13,29.83,10,10,10,20,13,26,0.00,0,,219
2011-3-11,62,50,37,26,18,11,48,32,19,30.03,29.88,29.74,10,10,10,31,16,39,0.00,0,,316
2011-3-12,59,44,28,28,22,21,72,45,24,30.10,30.03,29.94,10,10,10,23,11,33,0.00,2,,162
2011-3-13,48,39,30,32,27,21,93,79,50,30.34,30.18,30.01,10,6,1,16,11,20,0.00,5,Snow,123
2011-3-14,64,47,30,26,17,5,72,39,11,30.27,30.10,29.97,10,10,10,15,10,20,0.00,0,,189
2011-3-15,57,44,32,30,25,19,82,48,29,30.17,30.06,29.98,10,10,10,18,11,25,0.00,1,,351
2011-3-16,70,55,41,26,21,17,48,27,14,29.96,29.73,29.53,10,10,10,20,12,26,0.00,0,,210
2011-3-17,59,46,35,31,17,5,67,36,13,30.19,29.91,29.55,10,10,10,28,20,38,0.00,1,,350
2011-3-18,57,44,32,34,28,21,100,68,32,30.33,30.23,30.12,10,8,0,24,10,32,0.00,5,Fog-Snow,229
2011-3-19,73,54,36,42,23,5,73,37,9,30.08,29.80,29.60,10,10,10,26,18,37,0.00,0,,176
2011-3-20,64,51,39,22,13,2,43,23,13,29.90,29.82,29.67,10,10,10,18,12,18,0.00,0,,161
2011-3-21,75,54,33,39,19,-1,100,44,5,29.87,29.67,29.42,10,8,0,25,15,39,0.00,1,Fog,159
2011-3-22,57,46,37,35,16,3,83,33,12,29.75,29.52,29.34,10,10,10,25,18,38,0.00,2,,303
2011-3-23,55,41,26,20,13,9,75,35,17,30.10,29.94,29.76,10,10,10,36,19,47,0.00,0,,349
2011-3-24,54,36,21,36,23,18,93,65,31,30.10,29.87,29.61,10,10,7,36,17,52,0.00,2,Rain,158
2011-3-25,61,42,26,30,25,17,92,60,20,29.85,29.74,29.66,10,9,4,32,13,38,0.00,2,,144
2011-3-26,52,40,27,32,26,15,100,74,26,29.89,29.81,29.73,10,6,0,25,14,40,0.00,4,Fog,68
2011-3-27,34,30,26,32,29,23,100,94,85,29.94,29.82,29.76,10,4,1,25,16,32,0.01,8,Snow,145
2011-3-28,52,40,28,36,30,27,100,85,44,29.94,29.85,29.76,10,7,0,21,13,28,0.02,6,Fog-Rain-Snow-Thunderstorm,183
2011-3-29,45,36,28,30,28,23,100,83,42,30.22,30.10,29.94,10,6,0,20,10,16,0.05,5,Fog-Snow,344
2011-3-30,53,42,34,36,27,18,86,57,28,30.05,29.89,29.76,10,10,10,25,13,40,0.01,5,Rain,287
2011-3-31,55,48,41,41,36,29,82,67,40,29.88,29.77,29.69,10,10,10,32,13,44,0.04,5,Rain,340